Terug naar catalogus

OPS 4682 DEB

ActiefPO
NORAD 38455·DEBRIS·🇺🇸 United States

Gelanceerd Apr 3, 1965 vanaf Vandenberg Space Force Base

Loading…

Volgende Passages (komende 24 uur)

TLE

VerouderendSource: Space-Track

Epoch: Sep 9, 2026, 14:40 UTC

1 38455U 65027FL  26252.61175934  .00000798  00000-0  26996-2 0  9996
2 38455  90.2434   6.1664 0028598 175.6559 184.4815 12.97941254595466

Volg OPS 4682 DEB in realtime met AllMySat

Download on the App Store